< < Back
Terminal Aerodrome Forecast


Current Version              Previous Versions:   1  2  3  4  5  6  7  8  9  

Terminal Aerodrome Forecast

305
FTUS42 KMLB 181100
TAFMCO
TAF
KMCO 181135Z 1812/1912 08009KT P6SM VCSH BKN020
     FM181500 12012G20KT P6SM VCSH SCT015 BKN035 OVC150
     FM181800 15012KT P6SM SHRA VCTS SCT020 BKN040CB OVC060
      TEMPO 1820/1822 4SM TSRA SCT020 BKN030CB
     FM190300 17009KT P6SM VCSH BKN030 OVC050=

Latest METAR

031
SAUS70 KWBC 182100 RRO
MTRMCO
METAR KMCO 182053Z 17010KT 10SM FEW043 SCT065 BKN170 OVC260 27/19 A2996
RMK AO2 SLP145 CB DSNT SW-NW MOV NE T02720189 56014


USA.gov is the U.S. government's official web portal to all federal, state and local government web resources and services.